GFSSW_925_temp_273.txt.gz
Temp
18 17 17 17 18 19 19 20 20 20 20 21 21 21 21 22 22 18 27 28 27 26 26 29 29 31 32 35 36 37 35 36 38 38 39 37 37 37 37 36 35 35 35 32 30
18 18 18 17 18 19 19 20 20 20 20 21 21 22 22 21 19 27 27 27 26 26 28 31 32 33 34 35 36 35 35 37 39 39 39 38 38 36 35 35 35 34 34 31 31
17 18 18 19 19 19 20 20 20 20 21 21 22 22 22 20 26 32 27 26 26 26 29 32 34 34 34 36 36 36 35 38 39 39 39 38 37 37 35 35 35 34 33 32 31
17 18 19 19 19 20 21 21 21 21 22 22 22 22 21 19 32 29 27 27 26 26 29 32 34 34 34 35 36 35 37 37 39 38 38 37 38 36 36 36 37 36 33 33 32
17 18 19 19 19 20 20 20 20 21 22 22 22 22 18 28 32 27 28 27 25 27 31 33 33 34 34 36 36 36 36 37 38 37 37 38 37 37 36 37 37 36 33 33 33
17 18 19 19 19 20 19 20 21 21 21 22 22 21 21 31 30 29 28 26 30 31 33 34 34 35 35 35 36 36 36 37 37 37 37 36 36 37 37 36 36 36 34 33 33
18 18 19 20 20 19 20 21 21 21 22 22 22 18 28 31 29 29 29 30 31 31 33 33 34 34 34 35 36 36 34 36 36 37 36 36 35 36 38 37 35 35 34 34 33
17 18 19 20 21 20 21 21 20 21 22 22 21 19 31 29 29 29 30 30 30 30 31 32 32 34 34 36 35 34 35 34 37 37 36 35 34 37 37 37 35 34 34 34 33
17 18 19 20 21 21 20 19 19 20 21 21 19 25 31 27 30 30 30 31 31 31 31 31 32 33 34 33 34 34 34 35 36 37 36 35 34 38 38 36 35 34 34 34 33
17 18 19 21 22 22 20 18 18 19 20 19 24 28 31 32 31 30 31 31 32 32 32 32 33 33 34 34 34 35 34 35 36 37 35 36 35 37 37 36 35 35 34 33 33
17 19 20 21 22 22 18 17 23 26 27 30 31 31 32 32 30 31 31 31 33 32 32 32 32 33 35 35 35 34 34 35 36 36 35 35 35 36 36 35 35 35 34 33 31
18 19 21 22 22 23 22 30 27 27 30 31 30 31 30 31 31 32 31 31 32 32 33 32 32 35 34 34 33 33 33 34 35 35 34 35 35 36 37 35 35 35 35 34 31
18 20 21 22 23 23 27 26 25 25 29 32 32 32 31 31 32 32 32 33 32 32 33 32 34 33 32 33 32 33 33 34 34 35 35 35 34 35 36 36 36 35 35 35 33
18 20 21 22 21 26 27 25 25 25 30 31 32 32 32 33 31 34 33 34 33 32 33 33 34 32 32 32 33 32 35 34 33 33 33 35 33 35 36 36 36 35 35 35 34
19 20 21 22 24 28 25 25 25 26 29 31 32 32 33 32 33 32 33 33 32 33 33 33 32 32 32 33 34 33 34 33 33 33 33 34 33 35 37 35 36 36 36 35 35
19 21 21 22 24 25 25 25 25 29 29 31 32 32 33 33 33 33 32 33 34 33 33 33 34 33 33 33 33 34 32 33 33 33 32 33 34 35 36 36 36 36 37 36 35
19 21 21 20 27 25 25 28 29 30 30 30 31 32 32 32 32 32 31 31 31 30 31 33 33 34 33 32 34 33 32 31 31 32 32 35 34 34 36 37 37 37 37 37 35
20 20 21 22 24 24 26 29 28 30 30 30 30 31 31 31 32 32 32 31 31 31 31 32 31 33 33 33 33 33 32 31 30 31 33 35 33 35 37 37 37 37 37 37 35
20 22 24 24 23 24 28 28 30 30 30 30 31 30 30 31 30 31 31 31 30 30 29 30 31 33 33 33 33 32 32 34 32 33 32 34 35 36 36 36 36 37 37 36 36
17 25 26 24 23 25 28 27 29 29 28 29 29 30 30 30 30 30 30 29 29 30 30 30 29 32 32 32 33 32 34 31 32 29 29 32 33 34 35 35 36 36 36 37 36
19 27 25 24 25 27 28 29 28 28 28 28 29 29 29 29 29 30 30 28 28 29 30 30 29 30 32 32 31 31 31 31 29 31 30 30 32 34 32 34 35 35 36 32 31
23 27 25 25 27 29 29 28 17 27 27 28 28 28 28 28 28 29 29 28 26 28 28 29 27 28 30 32 32 31 30 31 30 29 30 29 31 36 34 35 35 35 36 26 18
24 26 25 25 27 28 26 26 27 26 27 27 27 27 27 27 26 27 28 27 26 27 27 27 27 27 28 30 31 29 31 30 29 28 28 29 30 34 31 28 34 32 33 33 21
23 25 27 26 26 25 26 26 25 25 26 25 26 26 26 26 27 26 27 26 25 26 21 23 25 26 27 29 29 29 29 30 29 27 28 29 31 32 33 31 33 31 31 32 33
23 22 21 25 25 24 24 25 25 24 25 25 25 25 25 25 26 26 27 27 26 21 23 24 24 26 27 28 28 28 28 28 28 29 28 29 29 31 31 31 32 32 30 29 30
20 21 22 23 21 22 19 24 24 25 23 24 23 25 24 23 24 25 25 25 24 26 24 24 22 24 24 26 27 27 27 28 28 29 29 29 29 31 31 31 30 28 28 28 29
18 18 19 19 22 22 24 23 23 23 23 23 22 22 22 22 21 22 22 22 22 22 23 22 23 23 23 26 26 26 27 28 28 29 29 28 30 31 30 29 27 26 26 26 26

GFSSW_925_temp_276.txt.gz
Temp
18 18 18 18 19 20 20 20 20 20 20 21 21 21 21 21 21 18 25 29 28 27 27 29 29 30 32 34 35 36 34 34 36 38 32 35 38 38 38 36 37 36 33 32 31
18 18 19 19 20 20 20 20 20 21 21 21 21 22 20 20 17 24 28 28 28 27 27 30 31 32 32 33 35 35 34 35 38 39 38 38 38 37 36 36 35 34 33 32 32
18 18 19 19 19 19 20 20 21 21 21 21 22 21 20 19 23 31 28 28 27 27 28 31 34 34 33 35 35 35 34 37 38 40 40 37 38 36 36 36 31 33 32 32 32
18 18 19 19 19 19 20 21 21 21 21 22 21 21 20 16 30 29 28 28 27 27 29 32 34 34 34 34 36 35 36 37 38 39 39 38 39 38 37 31 23 24 32 33 32
18 18 18 19 19 20 21 21 20 21 22 21 21 19 19 25 30 28 29 29 27 27 30 33 33 34 34 35 36 36 36 37 38 38 38 38 38 38 37 25 22 24 31 33 33
17 18 18 19 20 20 21 21 22 22 21 21 20 19 20 28 32 29 29 27 30 30 32 34 34 35 35 35 36 37 37 37 38 38 38 37 37 37 38 31 23 22 32 33 33
17 18 19 20 20 20 22 22 22 22 22 21 20 17 25 30 32 31 30 31 32 32 34 34 35 35 35 34 36 36 36 36 37 37 37 38 36 36 38 38 36 34 34 34 34
17 19 19 20 21 22 22 22 21 21 21 21 21 18 28 31 31 31 31 32 32 32 33 33 34 34 34 36 36 35 35 34 36 37 37 37 34 37 38 38 36 36 35 34 34
17 19 20 21 21 22 22 22 20 20 21 20 18 21 31 30 31 32 32 33 32 32 32 33 33 33 34 33 33 34 33 34 35 38 37 36 35 37 38 38 37 25 28 35 30
18 19 21 22 22 22 22 21 20 20 20 18 22 27 31 33 33 32 32 32 33 33 33 32 33 32 33 34 32 34 34 35 35 38 37 36 36 36 38 38 37 36 35 33 33
19 20 21 22 22 22 21 19 24 24 24 31 32 32 34 33 32 32 32 33 34 33 32 32 32 32 34 35 35 35 35 35 37 38 37 36 35 37 37 37 36 36 34 35 34
19 20 21 22 23 22 20 27 29 29 29 33 32 33 32 33 33 33 33 32 32 31 33 33 32 34 36 35 34 34 34 34 36 37 35 35 35 36 37 37 36 36 35 34 34
19 20 21 22 24 24 26 28 28 29 29 33 34 33 33 32 33 33 33 33 33 32 33 33 34 35 34 33 33 33 33 34 34 36 36 35 34 35 37 37 36 36 36 36 33
19 21 22 23 22 29 29 28 28 28 28 32 32 33 33 34 33 35 34 34 33 33 34 34 35 34 33 33 34 32 35 35 34 34 33 35 32 35 36 36 36 35 35 36 35
19 21 22 22 22 29 28 28 28 28 28 33 33 34 35 33 34 33 34 34 32 33 34 33 34 33 33 33 35 33 35 34 34 33 33 34 33 35 36 35 36 36 36 36 36
20 21 22 22 23 28 28 28 28 28 29 32 34 33 33 34 34 34 33 34 34 33 34 33 35 34 34 35 34 34 33 33 33 33 31 33 33 34 36 36 36 37 37 37 37
20 21 21 22 28 28 28 29 28 29 33 32 32 33 34 33 33 33 32 31 31 31 31 33 33 35 34 33 34 33 32 30 31 31 31 33 34 34 36 37 37 37 36 37 29
21 21 22 23 26 27 27 28 27 32 32 33 32 33 32 33 33 33 33 32 33 32 31 31 30 31 34 33 33 33 32 31 29 30 30 34 32 34 37 38 38 38 38 30 24
21 23 22 26 26 26 28 28 30 32 32 31 32 31 32 32 32 32 32 30 29 31 29 30 27 33 34 34 33 32 32 33 31 32 32 33 32 34 35 36 35 37 37 34 24
17 24 27 26 26 26 27 26 30 31 31 31 30 32 31 32 31 31 32 32 31 31 31 30 29 32 33 33 33 33 34 31 32 28 28 32 33 31 31 30 31 32 34 28 23
18 27 27 27 27 27 27 30 31 30 30 29 30 30 31 31 31 31 31 30 30 30 30 30 29 29 32 32 31 31 25 22 29 29 27 28 30 29 27 31 30 29 27 26 22
22 26 27 27 27 28 29 30 22 29 29 29 29 29 30 30 29 30 30 28 28 29 28 29 28 27 29 32 32 32 31 30 29 28 25 20 20 28 29 26 28 27 29 23 19
23 26 28 27 26 28 29 29 29 29 28 29 28 29 29 28 27 29 30 28 27 28 25 26 27 26 28 31 32 31 31 29 31 29 28 28 28 34 29 31 29 28 29 25 21
22 26 28 28 28 26 27 27 27 27 27 27 28 28 27 27 28 27 29 28 27 27 22 24 25 25 26 28 28 28 23 20 29 28 28 29 30 31 32 31 31 28 28 30 30
23 25 23 25 26 25 26 26 27 26 26 27 26 27 27 26 27 28 28 28 27 22 25 24 24 25 27 28 29 29 29 29 29 29 28 29 29 31 31 31 31 29 28 28 28
21 21 22 24 24 23 21 25 26 27 26 26 25 26 26 25 25 25 25 27 27 25 25 25 23 24 24 27 27 27 28 28 29 29 29 29 29 31 32 32 29 28 27 27 26
19 20 20 21 24 24 25 25 25 25 26 25 24 24 25 23 22 23 23 23 23 23 24 24 23 23 23 26 26 26 27 28 29 29 29 28 30 31 30 28 26 26 25 25 25

GFSSW_925_temp_279.txt.gz
Temp
18 19 19 19 19 20 20 20 21 21 20 20 21 21 21 21 21 19 18 26 27 28 27 28 28 28 29 28 29 30 26 27 29 31 33 34 32 30 34 30 32 31 29 28 29
18 19 19 19 19 20 20 21 21 21 21 21 20 21 21 20 17 18 28 26 27 27 27 27 27 28 26 29 28 28 25 28 31 32 33 35 34 33 34 28 25 30 30 30 30
18 18 19 19 19 20 20 21 21 21 21 21 21 21 21 19 16 27 29 27 27 28 27 28 29 28 27 27 27 28 28 30 32 33 34 35 33 35 27 24 26 24 26 30 30
18 18 18 19 20 20 21 21 21 20 21 21 19 20 20 18 26 29 28 28 28 27 27 28 28 28 28 27 28 29 30 31 33 34 33 34 36 34 31 27 27 27 29 29 29
18 18 19 19 20 20 21 21 21 21 21 19 18 20 18 19 22 29 29 28 28 28 28 27 28 29 29 28 29 29 30 32 32 32 32 35 35 31 25 26 27 25 27 26 29
17 18 19 20 20 21 21 21 22 21 20 20 20 19 18 23 30 30 29 28 29 28 29 29 29 29 29 29 29 30 30 31 32 31 32 34 35 34 26 26 26 26 27 25 26
18 19 19 20 21 21 22 22 22 21 21 21 21 19 20 23 31 30 29 29 30 30 29 32 32 31 29 30 31 31 30 30 31 33 33 33 34 34 26 25 24 26 26 27 22
18 19 20 20 21 22 22 22 21 21 21 22 21 17 20 30 30 31 31 31 31 32 32 32 33 31 30 29 30 29 31 28 29 32 33 33 29 33 23 24 25 21 21 21 24
18 19 20 21 21 22 22 21 20 21 21 20 19 18 24 31 31 31 31 32 32 32 32 32 32 30 29 27 26 28 27 28 29 32 32 31 30 33 29 24 24 21 22 22 25
18 19 20 21 21 22 22 22 21 21 20 18 19 21 25 29 31 31 32 32 32 32 31 31 28 26 25 25 24 27 28 28 29 32 31 31 31 31 33 33 24 23 22 22 24
19 20 21 21 22 22 23 22 20 20 22 24 27 28 32 32 32 32 32 32 31 31 27 28 26 25 26 28 29 30 30 29 31 33 33 30 33 32 32 30 24 24 24 21 21
19 20 21 22 23 23 22 21 27 27 24 28 28 31 33 33 31 32 32 30 29 28 28 28 26 29 31 32 32 30 29 28 30 32 34 33 32 32 32 32 27 24 23 23 22
19 20 22 23 24 24 24 27 28 29 25 29 31 33 32 32 31 31 31 30 29 28 29 28 30 33 33 31 31 30 29 29 29 31 31 33 30 30 31 32 31 30 28 24 22
19 20 22 23 23 24 27 28 29 28 23 29 31 32 32 31 31 34 33 30 30 29 29 30 32 33 32 31 31 29 31 32 31 30 27 31 25 28 30 30 31 31 29 25 23
19 20 22 22 22 22 28 29 28 27 23 31 32 33 31 30 32 33 34 31 29 30 30 29 31 32 32 31 32 30 32 31 30 28 26 28 25 26 29 29 30 29 29 28 24
20 20 22 22 22 27 28 28 28 23 24 31 32 31 30 31 33 32 32 33 31 30 30 30 33 33 32 32 32 32 30 28 28 27 24 27 27 28 29 30 31 30 30 29 28
21 21 22 21 23 27 27 26 23 23 32 31 31 32 31 31 32 32 31 29 27 28 28 29 31 31 33 32 31 32 29 24 24 24 24 28 28 26 30 27 28 30 29 25 24
22 23 23 23 25 26 26 22 23 29 31 33 32 33 31 33 32 33 31 28 29 30 27 27 26 29 33 32 31 29 27 23 25 24 27 30 28 27 28 26 26 26 25 23 21
22 22 22 25 26 25 22 21 25 29 30 31 32 30 30 32 32 31 30 29 29 28 27 26 27 28 31 32 31 29 26 30 27 26 25 27 26 27 26 26 26 25 24 22 22
19 20 23 26 26 26 21 22 26 29 30 30 29 30 29 30 30 30 29 30 30 29 27 27 25 29 29 32 31 30 26 24 22 23 23 25 23 23 24 24 26 23 22 20 19
19 20 26 27 26 22 21 24 28 30 29 29 28 27 29 29 31 30 29 28 28 28 29 27 25 26 28 28 26 25 24 19 20 22 23 23 22 22 25 24 24 24 21 20 19
17 21 27 27 22 22 22 27 25 29 29 29 29 28 27 27 27 29 27 26 28 28 26 23 24 23 25 27 29 28 28 22 20 23 21 21 20 25 24 25 26 26 23 20 18
14 20 26 27 21 22 25 28 29 28 28 28 28 28 27 26 26 27 28 27 27 25 23 23 21 21 22 25 26 27 26 23 20 21 23 23 22 24 25 25 26 25 22 19 17
15 20 22 22 22 24 23 25 27 28 27 27 26 26 26 26 26 26 27 26 27 23 22 22 22 22 20 22 24 24 26 22 19 19 22 23 25 25 26 26 24 24 23 20 19
16 20 19 20 21 21 22 23 25 25 27 26 25 25 25 25 24 24 25 26 26 21 24 21 20 23 22 24 25 25 26 26 22 22 22 25 24 25 25 25 24 23 23 22 22
16 17 17 18 20 22 21 23 23 25 26 25 23 24 24 22 20 20 20 20 20 22 23 21 20 22 21 23 24 24 25 25 25 25 25 25 24 26 25 22 21 22 22 22 22
16 17 16 17 19 21 21 23 24 24 25 24 22 21 20 19 19 20 20 20 21 21 19 19 20 20 19 22 22 21 23 24 25 25 25 23 24 23 21 21 20 19 21 21 21

GFSSW_925_temp_285.txt.gz
Temp
18 18 18 18 19 19 19 20 20 20 21 21 21 22 22 22 22 19 18 27 26 26 26 26 26 26 25 25 25 23 22 21 26 27 29 27 27 27 26 25 24 28 26 25 22
17 17 18 18 19 19 20 20 20 21 21 21 21 21 22 22 19 17 27 27 27 26 25 25 25 25 22 25 24 23 20 23 25 27 27 30 28 25 27 25 25 25 26 23 21
17 18 18 19 19 19 20 20 21 21 20 20 21 21 21 20 18 26 28 28 26 26 26 26 26 26 25 25 26 24 24 25 27 26 26 27 26 26 27 26 25 25 25 22 21
17 18 18 19 19 20 20 20 21 21 20 20 21 21 21 18 27 28 28 28 26 26 25 25 24 25 25 26 25 27 26 27 27 28 28 27 27 27 28 27 27 26 26 23 22
17 18 18 19 20 20 20 20 21 21 20 21 21 21 19 20 21 28 28 27 26 25 25 25 25 25 26 25 26 26 26 26 26 25 25 27 26 26 27 27 26 26 27 24 23
17 18 19 19 20 20 20 20 21 21 21 21 21 20 18 23 28 28 28 27 26 25 25 25 25 24 26 26 27 27 26 26 26 27 27 27 26 26 27 26 26 26 26 25 23
17 18 19 20 20 20 20 21 21 21 21 21 20 18 19 23 28 28 28 28 28 27 27 27 27 28 27 27 27 27 27 25 27 29 30 27 26 26 25 26 25 25 25 25 25
18 18 19 20 21 21 21 21 21 20 21 21 19 17 20 27 27 28 28 28 28 28 28 29 29 27 27 27 25 26 24 25 27 28 29 29 28 26 25 25 25 24 24 24 22
18 18 19 20 21 21 22 22 20 19 20 19 18 18 22 27 27 30 29 28 29 30 29 29 28 25 24 24 22 21 24 26 26 27 29 29 27 24 23 25 24 24 24 24 22
18 19 20 21 22 22 22 20 19 19 18 18 17 20 25 28 29 30 30 29 28 29 27 27 21 22 19 21 23 26 26 25 25 27 28 27 26 22 23 24 25 22 23 24 22
18 19 20 21 22 23 22 19 19 20 18 24 24 24 25 28 30 30 30 30 28 25 26 24 23 23 24 23 25 26 26 25 25 26 29 26 25 22 22 23 22 22 22 23 23
19 19 21 22 23 24 23 21 25 25 22 21 23 23 25 27 27 29 30 28 27 26 26 23 23 25 25 25 25 24 25 24 26 28 28 25 23 21 22 22 23 22 22 24 24
19 20 21 22 24 23 22 24 25 25 21 23 24 25 27 27 26 28 28 27 27 26 26 25 26 27 26 26 27 26 26 27 27 27 27 25 22 22 23 23 24 22 22 24 23
19 20 21 23 23 22 24 25 26 24 20 25 27 28 29 28 28 29 29 28 27 28 27 25 26 28 28 28 27 28 27 28 28 26 25 25 23 22 23 23 22 21 22 22 24
19 20 21 22 21 21 25 25 26 24 23 28 29 30 28 28 30 30 29 28 28 28 27 26 27 26 29 30 30 29 29 27 27 24 24 24 20 22 22 23 23 22 21 22 23
20 21 22 21 21 25 25 26 25 21 25 28 29 28 28 28 29 29 29 29 28 28 27 26 27 28 29 30 29 29 28 23 21 21 22 22 20 21 20 22 22 22 21 21 22
21 21 22 21 22 25 25 22 20 22 26 28 28 27 27 27 28 28 28 27 25 26 25 25 27 27 28 27 27 24 22 21 22 20 23 22 21 21 23 23 22 20 21 20 19
21 22 22 23 24 24 24 19 23 25 25 28 29 27 27 27 28 28 27 25 26 25 23 24 24 27 28 28 27 26 23 21 24 22 22 23 22 21 23 23 21 20 20 20 20
21 22 21 24 25 23 17 18 20 23 26 26 27 28 26 27 28 28 26 24 26 25 25 24 26 26 28 28 26 27 22 23 21 20 21 21 24 23 23 22 21 21 20 20 19
19 19 21 24 24 22 16 18 21 24 26 27 25 25 25 25 26 27 25 25 27 25 24 24 24 26 26 27 25 25 23 23 19 23 23 21 22 21 22 22 23 22 20 20 19
17 17 22 24 24 16 18 18 22 25 26 26 25 25 25 25 25 24 24 25 26 25 23 23 22 24 24 24 24 22 22 18 18 19 20 20 20 20 22 22 21 21 20 20 19
13 18 22 22 18 13 17 20 23 25 26 27 26 26 25 24 24 25 25 25 25 25 24 21 19 21 24 22 22 24 22 19 19 22 17 17 19 22 20 21 21 20 20 19 18
10 11 21 22 18 17 18 22 24 24 25 26 24 24 24 25 24 24 24 24 24 24 23 22 19 18 20 21 22 21 22 20 17 16 18 19 20 22 22 21 20 19 19 18 18
10 16 14 13 14 18 19 21 22 23 25 24 24 23 23 23 20 22 22 21 22 22 19 19 17 19 19 21 20 21 22 22 19 17 19 18 21 22 22 22 18 18 18 18 18
10 13 13 15 16 16 18 20 21 21 22 23 23 22 23 22 21 20 20 21 21 18 20 18 19 19 19 20 21 22 21 21 19 19 19 20 19 20 21 19 18 17 17 18 18
11 12 11 12 13 17 15 17 19 20 20 22 21 18 20 20 20 19 19 19 20 19 19 16 19 19 20 20 21 20 20 20 19 20 18 19 19 18 18 18 18 18 18 18 17
11 11 10 11 13 15 16 17 19 18 20 20 18 17 18 18 18 19 18 17 19 20 17 17 16 16 17 19 19 18 19 20 21 21 21 20 20 18 18 17 17 17 17 17 17

GFSSW_925_temp_288.txt.gz
Temp
17 17 18 19 19 19 19 19 20 20 21 21 21 21 22 22 22 19 18 26 26 26 26 25 25 24 24 23 23 21 20 21 26 25 28 25 27 26 25 26 25 27 24 23 20
17 18 18 18 19 19 19 20 20 20 20 20 21 21 21 21 18 17 27 26 25 26 26 25 23 23 21 24 22 21 19 22 24 25 27 28 27 26 26 26 24 25 24 21 19
18 18 18 18 19 19 20 20 20 20 20 20 20 21 21 20 18 26 27 27 26 26 26 26 25 24 24 24 24 22 22 23 26 25 27 28 28 25 26 26 26 24 22 21 20
17 17 18 18 19 20 20 20 20 20 21 20 20 21 21 18 26 27 27 26 26 25 25 25 24 23 23 25 24 26 25 25 26 26 24 27 26 25 25 28 26 24 22 21 20
16 17 18 19 19 20 20 20 21 21 21 20 20 20 19 21 24 27 27 26 25 25 25 24 25 23 25 24 25 25 26 26 25 24 24 26 24 25 25 26 24 23 22 21 20
17 18 18 19 20 20 21 21 21 21 20 20 21 19 18 25 27 27 26 26 26 25 25 24 25 23 25 25 25 24 25 25 24 26 26 25 25 27 26 25 24 23 22 21 21
17 18 18 19 20 21 21 21 21 20 21 20 19 18 19 25 27 27 26 26 26 27 24 26 26 26 24 26 26 26 26 24 26 28 28 25 26 24 25 24 23 24 22 22 22
17 18 19 20 20 21 20 21 21 19 20 20 19 18 21 27 26 26 26 27 27 27 27 28 27 26 26 26 23 25 23 24 27 26 28 27 27 26 24 23 23 23 24 23 22
18 18 19 20 21 21 22 21 20 18 19 19 18 18 25 27 26 28 27 28 28 28 27 27 26 23 23 23 21 20 25 25 25 27 27 28 27 25 22 24 23 23 24 23 21
18 18 19 20 21 22 20 19 18 18 17 17 17 20 25 27 28 28 29 28 28 27 26 25 19 21 18 20 23 26 25 24 25 26 24 21 20 20 21 22 22 22 23 23 23
17 19 20 21 22 22 19 19 18 19 17 24 24 24 24 27 29 29 29 28 27 24 25 23 22 23 24 23 24 25 25 24 23 25 22 21 22 20 21 22 21 21 21 21 22
18 19 20 21 23 23 22 20 22 23 21 21 22 22 24 26 26 28 29 28 27 25 25 22 24 25 24 24 24 24 24 24 25 26 22 23 22 21 22 23 23 22 21 22 21
18 19 21 21 23 22 22 23 23 23 20 22 23 24 26 26 27 26 27 27 27 26 25 24 26 26 25 25 25 24 26 26 27 26 23 24 22 21 23 23 22 21 21 21 21
18 20 21 21 21 21 23 24 25 24 19 25 26 27 27 26 28 27 28 27 27 27 25 25 25 26 26 28 25 27 25 27 27 25 24 22 21 22 21 21 22 22 21 20 21
18 20 21 22 21 21 24 24 25 24 22 27 27 28 27 27 28 28 28 28 27 27 26 26 26 26 27 29 26 28 26 26 26 23 24 23 20 22 20 22 22 21 21 20 19
19 20 21 21 20 24 24 25 24 20 24 27 28 27 27 28 28 28 28 28 27 27 26 26 26 27 28 28 27 26 26 21 19 19 21 22 21 21 21 23 21 21 21 20 18
19 20 21 20 21 24 24 21 19 20 25 27 27 27 27 27 28 28 27 26 24 26 25 25 26 26 27 26 26 23 21 20 22 20 22 21 21 21 23 22 22 20 20 18 17
20 21 22 22 23 23 24 19 22 24 24 26 27 26 27 26 27 27 25 25 25 24 21 23 24 26 26 27 26 24 22 20 24 21 21 21 22 22 22 23 22 20 19 19 17
20 21 20 21 23 22 18 18 20 22 25 25 26 26 25 26 27 26 25 23 25 23 24 23 25 26 26 25 25 25 22 22 19 19 20 20 22 22 23 22 21 21 20 18 17
17 18 20 21 22 22 17 18 20 21 24 26 25 25 24 24 26 25 25 24 26 23 23 24 25 25 25 26 23 24 22 22 18 22 23 20 21 21 22 21 21 21 20 18 17
16 17 20 21 21 16 18 17 20 22 24 25 24 24 24 24 24 23 24 24 24 24 22 22 22 24 24 22 22 21 21 18 17 18 19 20 20 19 21 21 21 20 20 19 17
12 18 20 21 17 12 17 18 21 24 24 26 24 25 25 24 24 24 24 24 22 24 23 21 18 21 23 21 20 22 21 18 18 21 16 17 18 21 20 20 20 20 20 19 17
10 10 20 21 18 17 18 21 22 23 24 25 24 24 23 23 23 23 23 22 20 21 23 21 19 19 21 21 22 21 21 18 15 15 17 18 19 21 21 20 19 19 19 18 17
10 15 14 12 13 17 19 20 21 22 23 23 23 23 22 22 18 22 22 21 21 20 19 18 16 19 19 21 20 21 21 20 18 16 17 17 20 20 21 22 19 17 17 17 17
8 12 12 15 15 16 17 18 20 20 20 19 21 21 22 21 20 21 20 21 20 18 18 18 20 19 19 20 20 20 20 19 19 18 19 19 17 19 19 20 18 17 17 17 17
11 11 10 11 12 16 14 17 19 18 18 21 21 19 19 20 20 19 20 19 20 19 18 15 18 18 20 20 19 19 19 19 18 18 17 17 18 19 17 17 17 17 17 16 16
10 10 10 10 13 15 14 17 18 17 20 18 19 18 19 18 18 18 17 16 18 19 17 17 15 15 17 18 18 17 18 19 19 19 19 18 18 19 17 16 16 16 16 16 16

GFSSW_925_temp_291.txt.gz
Temp
17 18 18 18 19 19 19 20 20 20 21 21 21 20 21 21 21 19 21 25 26 25 25 24 24 24 25 27 26 26 29 28 30 30 31 30 30 29 29 29 28 29 28 27 23
17 18 17 18 19 19 19 20 20 20 20 21 20 20 20 20 18 19 25 26 26 25 25 26 25 25 27 27 27 28 28 29 29 30 31 32 31 32 30 29 28 28 26 23 22
17 17 18 19 19 19 20 20 20 20 20 20 20 20 20 19 20 26 25 26 25 25 25 25 25 27 27 27 27 26 28 29 30 30 30 31 31 31 30 31 31 29 26 24 23
16 18 18 18 19 19 20 20 20 20 20 20 21 20 20 18 27 26 26 26 25 26 26 25 27 27 27 28 27 28 29 29 31 30 29 30 31 31 30 33 30 30 27 25 24
17 18 18 18 19 20 20 20 21 21 20 20 21 21 19 23 27 26 26 25 25 25 26 27 28 27 28 28 27 28 29 28 30 29 29 29 30 31 31 32 28 27 26 25 25
17 18 18 18 19 20 20 21 21 20 20 20 21 20 18 27 25 25 26 26 26 25 25 26 28 28 28 28 28 28 29 30 29 29 29 29 29 28 32 32 28 26 26 26 26
17 17 18 19 20 20 21 22 21 21 20 21 20 18 21 27 25 25 25 26 26 26 27 26 27 28 27 28 28 28 29 30 29 30 30 29 29 29 31 29 29 27 26 26 26
17 18 19 19 20 21 21 22 22 21 20 20 18 17 25 26 25 25 26 26 26 26 26 27 26 27 28 27 28 28 28 31 30 30 28 29 33 29 27 28 29 29 26 25 26
17 18 19 20 20 21 22 21 20 19 19 19 17 17 27 26 25 27 27 27 26 26 26 26 26 25 27 28 29 28 30 29 30 28 29 29 31 28 25 27 28 28 27 26 25
17 18 19 20 21 22 20 19 19 18 17 17 17 22 27 28 27 27 27 27 28 28 28 28 27 28 27 29 29 29 29 29 29 29 27 26 27 25 25 26 26 26 26 26 25
18 18 19 20 21 22 20 19 21 22 17 25 25 26 26 27 27 27 27 28 28 28 28 26 29 29 29 28 28 28 28 28 28 28 28 26 27 26 26 27 27 28 28 27 25
18 19 20 21 22 22 21 22 23 23 24 23 23 24 24 26 28 28 28 29 28 28 27 28 29 28 27 26 27 27 28 29 28 27 29 29 28 27 27 26 26 26 27 28 27
18 19 20 21 21 20 21 22 22 22 23 25 24 26 27 27 28 29 29 28 28 28 27 29 29 27 27 27 28 28 29 29 30 28 27 27 29 28 28 27 27 26 25 26 25
18 19 20 21 20 20 22 23 23 22 25 27 27 28 26 27 28 28 28 29 28 29 27 28 28 28 29 29 30 30 29 29 29 29 30 26 28 28 27 28 28 26 25 25 24
18 18 20 21 20 21 23 23 23 23 25 27 28 28 27 29 29 28 27 30 29 28 29 29 29 29 30 29 29 30 28 28 28 28 28 27 29 28 27 28 28 26 25 24 23
18 18 20 20 20 23 23 23 23 25 25 28 28 28 28 28 29 28 29 29 28 28 28 29 28 29 29 28 28 27 28 27 27 28 28 26 27 29 28 27 27 27 25 23 22
18 19 20 19 22 22 23 23 25 25 26 27 28 28 28 28 29 29 29 28 29 28 28 28 29 29 28 30 29 28 29 29 28 28 28 25 27 28 27 27 27 26 24 23 20
19 20 21 21 21 22 23 25 24 25 26 27 27 27 28 28 28 28 28 28 26 28 27 28 28 28 28 28 28 27 27 29 26 27 28 25 27 28 27 27 27 26 23 22 21
19 19 19 19 21 21 24 23 25 24 26 26 27 27 27 27 28 28 27 28 27 27 28 27 27 27 27 27 27 28 28 25 25 23 26 26 27 27 27 28 28 27 24 22 20
16 17 18 19 21 21 23 21 23 23 25 26 26 26 26 27 27 27 26 26 26 26 26 26 27 26 27 27 26 27 25 27 26 26 26 26 26 28 28 28 28 27 26 23 22
15 20 19 20 21 22 23 22 22 23 24 26 26 26 26 26 26 26 26 25 25 25 25 25 27 27 26 26 26 27 26 23 24 25 27 26 28 26 27 27 28 28 26 24 23
13 21 19 20 22 17 22 21 21 24 25 26 25 26 26 25 26 26 26 25 23 25 26 23 25 26 25 24 23 25 25 24 26 25 23 24 26 25 24 26 26 27 25 23 22
15 16 19 20 22 21 20 22 23 24 24 25 25 25 24 24 25 25 24 23 22 23 25 24 23 25 24 25 25 25 24 22 22 22 24 25 27 26 25 26 26 25 25 23 22
15 20 19 18 16 20 21 21 23 22 23 22 24 24 24 24 23 24 24 22 22 21 18 22 22 25 26 26 25 24 24 23 24 24 25 25 27 27 26 25 26 26 23 23 22
14 16 14 19 18 18 19 20 21 22 21 22 23 23 24 23 23 23 22 23 22 20 21 23 24 22 23 23 23 24 24 23 23 24 24 26 24 26 26 25 25 24 22 22 22
16 16 13 15 14 18 16 19 20 20 20 22 23 21 22 23 24 23 23 23 24 22 21 19 23 21 23 22 22 22 24 23 23 23 22 23 23 25 24 22 22 22 22 22 21
9 10 14 12 16 18 18 18 19 18 20 19 20 21 21 20 20 19 19 19 21 22 21 21 21 21 22 21 21 21 22 24 24 24 24 23 25 24 23 22 21 21 21 21 20